Regional Weather Roundup
Issued by NWS

Home | Current Version | Previous Version | Text Only | Print | Product List | Glossary Off
Versions: 1 2 3 4 5 6 7 8 9 10 11 12 13 14 15 16 17 18 19 20 21 22 23 24 25 26 27 28 29 30 31 32 33 34 35 36 37 38 39 40 41 42 43 44 45 46 47 48 49 50

000
ASUS43 KOAX 020502
RWRNE

WEATHER ROUNDUP FOR NEBRASKA
NATIONAL WEATHER SERVICE OMAHA NE
1200 AM CDT SUN AUG 02 2015

NOTES: SATELLITE DATA IS BEING USED TO AUGMENT CLOUD COVER ABOVE
       12000 FEET.
       "FAIR" INDICATES FEW OR NO CLOUDS BELOW 12,000 FEET WITH NO
       SIGNIFICANT WEATHER AND/OR OBSTRUCTIONS TO VISIBILITY.

  * THESE STATIONS DO NOT REPORT WEATHER SUCH AS RAIN...SNOW OR FOG.

NEZ001>004-019>022-054>056-020600-
NEBRASKA PANHANDLE

CITY           SKY/WX    TMP DP  RH WIND       PRES   REMARKS
SCOTTSBLUFF    CLEAR     67  57  70 E6        30.03F
ALLIANCE       PTCLDY    64  56  75 S6        30.02S
CHADRON        CLEAR     72  57  59 CALM      29.97S
KIMBALL        PTCLDY    67  54  62 SE10      30.08F
SIDNEY         PTCLDY    70  55  59 S14       30.06F
$$

NEZ057>060-069>072-079>082-020600-
SOUTHWEST NEBRASKA

CITY           SKY/WX    TMP DP  RH WIND       PRES   REMARKS
NORTH PLATTE   MOCLDY    67  62  84 CALM      29.97S
IMPERIAL       MOCLDY    76  52  43 S9        29.98F
LEXINGTON      PTCLDY    73  65  77 S6        29.95F
MCCOOK         CLOUDY    78  57  48 SW8       29.96F
$$

NEZ005>010-023>029-035>040-094-020600-
NORTH CENTRAL NEBRASKA

CITY           SKY/WX    TMP DP  RH WIND       PRES   REMARKS
BROKEN BOW     PTCLDY    67  63  87 N3        29.95F
O`NEILL        CLEAR     69  62  78 SW6       29.91S
ORD            MOCLDY    67  64  90 CALM      29.93S
$$

NEZ041-046>049-061>064-073>077-083>087-020600-
SOUTH CENTRAL NEBRASKA

CITY           SKY/WX    TMP DP  RH WIND       PRES   REMARKS
GRAND ISLAND   PTCLDY    73  68  84 S8        29.93F
AURORA         PTCLDY    73  69  88 S6        29.93F
HASTINGS       PTCLDY    74  69  85 S7        29.94F
KEARNEY *      MOCLDY    70  64  83 S5        29.94F
$$

NEZ011>018-030>034-042>045-020600-
NORTHEAST NEBRASKA

CITY           SKY/WX    TMP DP  RH WIND       PRES   REMARKS
NORFOLK        CLEAR     66  64  93 N3        29.91F
BLAIR          CLEAR     73  69  86 S5        29.92S
COLUMBUS *     CLEAR     64  57  77 CALM      29.92S
TEKAMAH        CLEAR     69  68  96 S6        29.90S
$$

NEZ050>053-065>068-078-088>093-020600-
SOUTHEAST NEBRASKA

CITY           SKY/WX    TMP DP  RH WIND       PRES   REMARKS
LINCOLN        PTCLDY    71  66  84 CALM      29.93S
OMAHA EPPLEY   PTCLDY    77  72  84 S8        29.91S
FALLS CITY     PTCLDY    72  65  78 S10       29.94F
$$

NEZ044-045-051>053-067-020600-
OMAHA AREA

CITY           SKY/WX    TMP DP  RH WIND       PRES   REMARKS
OMAHA EPPLEY   PTCLDY    77  72  84 S8        29.91S
BLAIR          CLEAR     73  69  86 S5        29.92S
$$


USA.gov is the U.S. government's official web portal to all federal, state and local government web resources and services.